Weather reports worldwide

Advertisment
Machrihanish, United Kingdom (3111): temperature & dewpoint: 10.09.2019 04:00:00 - 16.09.2019 04:00:00 (BST)Machrihanish, United Kingdom (3111): temperature -20cm & temperature -100cm: 10.09.2019 04:00:00 - 16.09.2019 04:00:00 (BST)Machrihanish, United Kingdom (3111): wind speed & gusts: 10.09.2019 04:00:00 - 16.09.2019 04:00:00 (BST)Machrihanish, United Kingdom (3111): wind direction: 10.09.2019 04:00:00 - 16.09.2019 04:00:00 (BST)Machrihanish, United Kingdom (3111): reduced air pressure: 10.09.2019 04:00:00 - 16.09.2019 04:00:00 (BST)Machrihanish, United Kingdom (3111): visibility: 10.09.2019 04:00:00 - 16.09.2019 04:00:00 (BST)Machrihanish, United Kingdom (3111): precipitation: 10.09.2019 04:00:00 - 16.09.2019 04:00:00 (BST)
Date & Time tt [°C] td [°C] tt -20cm [°C] tt -100cm [°C] ff [km/h] ff [kn] fx [km/h] fx [kn] dd ppp [hPa] vv [km] rr [mm]
16.09.2019 04:00:00 5,7 5,4 - - 9 5 - - ESE 1022,7 19 -
16.09.2019 03:00:00 5,8 5,4 - - 8 4 - - E 1022,9 18 0,0
16.09.2019 02:00:00 6,4 5,9 - - 8 4 - - ESE 1023,2 16 0,0
16.09.2019 01:00:00 6,7 6,0 - - 5 3 - - E 1023,4 18 0,0
16.09.2019 00:00:00 7,9 7,0 - - 5 3 - - ESE 1023,2 16 0,0
15.09.2019 23:00:00 9,3 8,0 - - 2 1 - - ESE 1023,1 19 0,0
15.09.2019 22:00:00 10,9 8,8 - - 8 4 - - NNW 1023,1 16 0,0
15.09.2019 21:00:00 12,0 9,1 - - 11 6 - - NW 1023,0 16 0,0
15.09.2019 20:00:00 11,8 9,1 - - 11 6 - - NW 1022,9 17 0,0
15.09.2019 19:00:00 12,3 9,2 - - 15 8 - - WNW 1022,9 15 0,0
15.09.2019 18:00:00 13,3 9,2 - - 15 8 - - WNW 1022,7 18 0,0
15.09.2019 17:00:00 13,3 9,4 - - 16 9 - - W 1023,0 17 0,0
15.09.2019 16:00:00 13,4 9,4 - - 15 8 - - WNW 1023,6 17 0,0
15.09.2019 15:00:00 13,9 9,5 - - 16 9 - - WNW 1023,7 18 0,0
15.09.2019 14:00:00 13,7 9,5 - - 24 13 - - WNW 1023,8 17 0,0
15.09.2019 13:00:00 13,2 9,4 - - 28 15 - - WNW 1023,9 18 0,0
15.09.2019 12:00:00 13,1 10,1 - - 26 14 - - W 1023,3 15 0,0
15.09.2019 11:00:00 12,3 8,3 - - 28 15 - - W 1023,6 16 0,0
15.09.2019 10:00:00 12,2 9,5 14,7 14,7 28 15 - - WNW 1023,3 12 0,2
15.09.2019 09:00:00 12,2 8,4 - - 22 12 - - WNW 1022,7 14 0,2
15.09.2019 08:00:00 12,6 8,1 - - 26 14 - - NW 1022,6 15 0,0
15.09.2019 07:00:00 12,6 8,4 - - 29 16 50 27 WNW 1021,7 14 0,0
15.09.2019 06:00:00 12,5 8,9 - - 26 14 - - WNW 1021,8 14 0,0
15.09.2019 05:00:00 12,3 8,4 - - 29 16 46 25 NW 1021,7 14 0,0
15.09.2019 04:00:00 13,0 9,6 - - 34 18 50 27 WNW 1021,7 13 0,0
15.09.2019 03:00:00 13,4 10,9 - - 34 18 48 26 WNW 1021,4 13 0,0
15.09.2019 02:00:00 13,5 11,4 - - 37 20 48 26 W 1021,2 12 0,0
15.09.2019 01:00:00 13,3 12,9 - - 29 16 - - W 1021,2 11 0,4
15.09.2019 00:00:00 12,6 12,2 - - 29 16 46 25 WNW 1021,6 8 0,8
14.09.2019 23:00:00 12,8 12,7 - - 26 14 48 26 WNW 1021,4 3,3 1,0
14.09.2019 22:00:00 13,4 12,6 - - 37 20 48 26 W 1020,8 4,2 0,4
14.09.2019 21:00:00 15,8 14,3 - - 31 17 48 26 WSW 1020,3 12 0,0
14.09.2019 20:00:00 16,5 13,8 - - 24 13 - - WSW 1020,5 13 0,0
14.09.2019 19:00:00 16,8 13,6 - - 24 13 - - WSW 1020,7 15 0,0
14.09.2019 18:00:00 17,0 13,4 - - 29 16 52 28 WSW 1020,8 16 0,0
14.09.2019 17:00:00 17,7 12,7 - - 24 13 46 25 SSW 1021,4 23 0,0
14.09.2019 16:00:00 17,6 12,2 - - 22 12 - - SSW 1022,8 24 0,0
14.09.2019 15:00:00 17,2 11,4 - - 16 9 - - SSW 1023,8 25 0,0
14.09.2019 14:00:00 16,0 10,3 - - 24 13 46 25 S 1024,4 24 0,0
14.09.2019 13:00:00 16,0 8,8 - - 24 13 48 26 S 1025,0 25 0,0
14.09.2019 12:00:00 15,5 6,9 - - 18 10 - - SSW 1026,2 27 0,0
14.09.2019 11:00:00 15,4 8,4 - - 21 11 - - SSW 1027,0 25 0,0
14.09.2019 10:00:00 14,6 8,8 14,7 14,7 24 13 - - SSW 1027,4 26 0,0
14.09.2019 09:00:00 14,1 9,6 - - 18 10 - - S 1027,8 25 0,0
14.09.2019 08:00:00 13,5 9,3 - - 18 10 - - S 1028,2 25 0,0
14.09.2019 07:00:00 13,5 8,9 - - 21 11 - - S 1028,9 26 0,0
14.09.2019 06:00:00 12,8 9,2 - - 26 14 - - S 1029,7 22 0,0
14.09.2019 05:00:00 12,2 9,5 - - 22 12 - - SSE 1030,3 22 0,0
14.09.2019 04:00:00 12,0 9,1 - - 15 8 - - S 1031,3 23 0,0
14.09.2019 03:00:00 10,2 9,8 - - 9 5 - - SSE 1032,9 18 0,0
14.09.2019 02:00:00 10,0 9,3 - - 13 7 - - ESE 1033,5 17 0,0
14.09.2019 01:00:00 9,3 8,6 - - 13 7 - - ESE 1034,2 17 0,0
14.09.2019 00:00:00 9,5 8,7 - - 13 7 - - ESE 1034,4 17 0,0
13.09.2019 23:00:00 9,4 8,3 - - 13 7 - - ESE 1034,7 18 0,0
13.09.2019 22:00:00 10,2 8,9 - - 8 4 - - ESE 1034,9 18 0,0
13.09.2019 21:00:00 11,5 10,1 - - 5 3 - - S 1035,4 16 0,0
13.09.2019 20:00:00 11,0 9,2 - - 11 6 - - SE 1035,4 18 0,0
13.09.2019 19:00:00 13,4 10,1 - - 15 8 - - WNW 1035,5 17 0,0
13.09.2019 18:00:00 14,1 10,5 - - 15 8 - - WNW 1035,5 16 0,0
13.09.2019 17:00:00 15,2 10,5 - - 16 9 - - W 1035,5 18 0,0
13.09.2019 16:00:00 15,5 10,9 - - 16 9 - - W 1035,6 18 0,0
13.09.2019 15:00:00 15,6 10,7 - - 18 10 - - W 1035,6 19 0,0
13.09.2019 14:00:00 15,4 11,0 - - 22 12 - - W 1036,2 18 0,0
13.09.2019 13:00:00 15,2 11,0 - - 22 12 - - W 1035,7 20 0,0
13.09.2019 12:00:00 14,3 10,8 - - 22 12 - - WSW 1035,4 19 0,0
13.09.2019 11:00:00 13,5 11,0 - - 28 15 - - W 1035,1 16 0,8
13.09.2019 10:00:00 12,7 10,6 14,7 14,7 22 12 - - W 1034,6 16 0,0
13.09.2019 09:00:00 13,7 9,5 - - 21 11 - - W 1033,9 17 0,0
13.09.2019 08:00:00 12,6 9,0 - - 22 12 - - WNW 1033,3 17 0,0
13.09.2019 07:00:00 12,7 8,5 - - 28 15 - - WNW 1032,7 17 0,0
13.09.2019 06:00:00 12,8 9,1 - - 28 15 - - W 1032,2 17 0,0
13.09.2019 05:00:00 12,6 8,2 - - 29 16 - - WNW 1031,4 17 0,0
13.09.2019 04:00:00 12,6 8,8 - - 31 17 - - WNW 1031,0 17 0,0
13.09.2019 03:00:00 12,8 9,0 - - 29 16 - - WNW 1030,5 17 0,0
13.09.2019 02:00:00 12,6 10,0 - - 26 14 46 25 WNW 1030,4 16 0,4
13.09.2019 01:00:00 13,1 10,5 - - 34 18 50 27 W 1029,7 17 0,0
13.09.2019 00:00:00 13,0 9,3 - - 34 18 - - W 1029,4 18 0,0
12.09.2019 23:00:00 12,6 8,8 - - 29 16 - - WNW 1028,8 17 0,0
12.09.2019 22:00:00 12,8 8,9 - - 29 16 - - WNW 1028,4 20 0,0
12.09.2019 21:00:00 12,7 9,3 - - 26 14 - - WNW 1027,5 16 0,0
12.09.2019 20:00:00 12,9 9,4 - - 24 13 - - WNW 1026,5 18 0,0
12.09.2019 19:00:00 13,5 9,1 - - 28 15 - - WNW 1025,6 18 0,0
12.09.2019 18:00:00 14,3 10,1 - - 29 16 - - WNW 1024,5 17 0,0
12.09.2019 17:00:00 14,7 10,4 - - 29 16 - - WNW 1023,4 20 0,0
12.09.2019 16:00:00 14,9 11,9 - - 31 17 - - WNW 1022,5 20 0,0
12.09.2019 15:00:00 14,5 12,4 - - 22 12 - - WNW 1021,4 19 0,0
12.09.2019 14:00:00 13,3 12,5 - - 29 16 - - NW 1020,3 17 0,0
12.09.2019 13:00:00 14,5 14,3 - - 18 10 - - W 1019,3 19 0,4
12.09.2019 12:00:00 13,9 13,7 - - 13 7 - - W 1018,8 6 0,8
12.09.2019 11:00:00 13,7 13,3 - - 8 4 - - W 1018,1 4,5 1,4
12.09.2019 10:00:00 13,5 13,2 14,7 14,7 5 3 - - E 1017,7 3,3 1,8
12.09.2019 09:00:00 13,1 12,7 - - 5 3 - - E 1017,9 3,1 1,2
12.09.2019 08:00:00 12,9 12,2 - - 8 4 - - SSW 1017,9 6 0,8
12.09.2019 07:00:00 12,7 11,9 - - 5 3 - - SW 1017,9 4,0 0,6
12.09.2019 06:00:00 13,1 11,5 - - 13 7 - - SW 1017,8 17 0,0
12.09.2019 05:00:00 13,5 10,9 - - 18 10 - - SW 1017,9 23 0,0
12.09.2019 04:00:00 13,3 10,9 - - 18 10 - - SW 1017,9 20 0,0
12.09.2019 03:00:00 13,2 11,0 - - 24 13 - - WSW 1018,3 17 0,0
12.09.2019 02:00:00 12,8 10,0 - - 18 10 - - SW 1018,3 20 0,0
12.09.2019 01:00:00 13,3 10,2 - - 24 13 50 27 WSW 1018,2 15 0,0
12.09.2019 00:00:00 13,4 10,6 - - 24 13 - - WSW 1018,0 15 0,0
11.09.2019 23:00:00 13,5 10,7 - - 31 17 - - W 1017,9 16 0,0
11.09.2019 22:00:00 13,7 9,6 - - 29 16 - - W 1018,1 18 0,0
11.09.2019 21:00:00 13,8 10,2 - - 31 17 - - W 1017,2 19 0,0
11.09.2019 20:00:00 13,9 10,7 - - 29 16 46 25 W 1016,8 16 0,0
11.09.2019 19:00:00 14,0 10,5 - - 31 17 48 26 W 1016,4 16 0,0
11.09.2019 18:00:00 14,5 10,3 - - 31 17 55 30 W 1015,8 17 0,0
11.09.2019 17:00:00 14,9 11,0 - - 37 20 59 32 W 1015,3 17 0,0
11.09.2019 16:00:00 15,6 10,8 - - 39 21 59 32 W 1014,7 17 0,0
11.09.2019 15:00:00 15,6 11,6 - - 42 23 54 29 W 1014,1 15 0,0
11.09.2019 14:00:00 15,3 11,5 - - 37 20 54 29 W 1013,5 15 0,0
11.09.2019 13:00:00 13,3 12,2 - - 42 23 57 31 W 1013,1 16 0,2
11.09.2019 12:00:00 15,4 12,0 - - 41 22 54 29 W 1012,0 15 0,0
11.09.2019 11:00:00 15,1 12,2 - - 39 21 52 28 W 1011,2 14 0,0
11.09.2019 10:00:00 14,8 11,7 14,7 14,7 35 19 59 32 W 1010,2 13 0,0
11.09.2019 09:00:00 14,2 11,4 - - 41 22 57 31 W 1009,7 12 0,0
11.09.2019 08:00:00 13,6 11,9 - - 37 20 59 32 W 1008,9 13 0,4
11.09.2019 07:00:00 14,3 12,2 - - 35 19 54 29 W 1007,9 13 0,0
11.09.2019 06:00:00 14,1 11,7 - - 39 21 55 30 W 1007,0 15 0,0
11.09.2019 05:00:00 14,1 12,1 - - 37 20 50 27 W 1006,7 15 0,0
11.09.2019 04:00:00 14,0 12,9 - - 39 21 61 33 W 1006,3 16 1,2
11.09.2019 03:00:00 15,5 15,2 - - 26 14 50 27 WSW 1006,1 4,5 0,8
11.09.2019 02:00:00 16,6 15,0 - - 29 16 - - SW 1006,1 23 0,0
11.09.2019 01:00:00 16,1 15,0 - - 28 15 - - SW 1006,6 19 0,6
11.09.2019 00:00:00 15,8 14,5 - - 28 15 48 26 SSW 1007,1 27 1,2
10.09.2019 23:00:00 15,3 13,7 - - 29 16 52 28 SSW 1007,7 24 0,0
10.09.2019 22:00:00 14,3 12,8 - - 29 16 52 28 S 1008,8 19 0,2
10.09.2019 21:00:00 13,7 12,2 - - 37 20 55 30 S 1009,3 18 0,0
10.09.2019 20:00:00 13,2 11,9 - - 34 18 50 27 S 1010,3 19 0,8
10.09.2019 19:00:00 12,9 11,8 - - 35 19 55 30 SSE 1011,1 14 0,4
10.09.2019 18:00:00 12,9 11,4 - - 26 14 - - S 1012,6 11 0,2
10.09.2019 17:00:00 12,0 10,8 - - 24 13 - - SSE 1014,0 9 0,2
10.09.2019 16:00:00 13,6 9,6 - - 22 12 - - SSW 1015,5 14 0,0
10.09.2019 15:00:00 14,3 9,1 - - 24 13 - - SSW 1016,2 20 0,0
10.09.2019 14:00:00 14,7 9,8 - - 18 10 - - SSW 1016,8 20 0,0
10.09.2019 13:00:00 14,0 7,4 - - 18 10 - - SSW 1017,4 24 0,0
10.09.2019 12:00:00 14,1 8,1 - - 16 9 - - WSW 1018,1 21 0,0
10.09.2019 11:00:00 13,5 10,1 - - 18 10 - - WSW 1018,2 17 0,0
10.09.2019 10:00:00 13,1 9,4 14,7 14,7 13 7 - - WNW 1018,5 16 0,0
10.09.2019 09:00:00 13,1 9,9 - - 13 7 - - NW 1018,4 15 0,0
10.09.2019 08:00:00 12,1 9,4 - - 15 8 - - WNW 1018,4 15 0,0
10.09.2019 07:00:00 10,7 8,9 - - 11 6 - - WNW 1017,6 11 0,0
10.09.2019 06:00:00 11,4 9,3 - - 13 7 - - NW 1017,6 15 0,0
10.09.2019 05:00:00 11,5 8,7 - - 18 10 - - NW 1017,4 19 0,0
10.09.2019 04:00:00 11,5 8,8 - - 21 11 - - NW 1017,3 17 0,0

tt = temperature
td = dewpoint
tt -20cm = temperature -20cm
tt -100cm = temperature -100cm
ff = wind speed
fx = gusts
dd = wind direction
ppp = reduced air pressure
vv = visibility
rr = precipitation

Next stations